Location: Binningen
(47.7924°N, 8.7261°E)
Time: 14:50:13
(UTC+00:00)

Terra - Pass Details

Date: 04 October 2021
Orbit: 701 x 703 km, 98.2° (Epoch: 28 October)

Event Time Altitude Azimuth Distance (km) Brightness Sun altitude
Exits shadow 19:45:22 10° 23° (NNE) 2,169 4.4 -28.2°
Drops below altitude 10° 19:45:25 10° 22° (NNE) 2,181 4.4 -28.2°
Sets 19:48:31 0° 1° (N) 3,104 5.5 -28.6°
